Regional Weather Roundup
Issued by NWS

Home | Current Version | Previous Version | Text Only | Print | Product List | Glossary Off
Versions: 1 2 3 4 5 6 7 8 9 10 11 12 13 14 15 16 17 18 19 20 21 22 23 24 25 26 27 28 29 30 31 32 33 34 35 36 37 38 39 40 41 42 43 44 45 46 47 48 49 50

000
ASUS45 KBOU 181810
RWRCO

WEATHER ROUNDUP FOR COLORADO
NATIONAL WEATHER SERVICE DENVER/BOULDER CO
1100 AM MST THU JAN 18 2018

NOTE: "FAIR" INDICATES FEW OR NO CLOUDS BELOW 12000 FEET WITH NO
SIGNIFICANT WEATHER AND/OR OBSTRUCTIONS TO VISIBILITY.

COZ001>005-013-030-031-181900-
...NORTHWEST COLORADO...

CITY           SKY/WX    TMP DP  RH WIND       PRES   REMARKS
CRAIG          FAIR      25  14  63 W3        30.33F
HAYDEN         FAIR     N/A N/A N/A SE7       30.34F
MEEKER         FAIR      31  22  69 SE3       30.33F
RABBIT EARS PA FAIR      27  19  74 W6        30.33F WCI  20
STEAMBOAT SPGS FAIR      16  13  89 CALM      30.34F
WALDEN         FAIR      30  16  55 SW3       30.31S
$$

COZ006>008-011-181900-
...WEST CENTRAL VALLEYS...

CITY           SKY/WX    TMP DP  RH WIND       PRES   REMARKS
GRAND JUNCTION FAIR      37  19  48 SE9       30.37S
MONTROSE       FAIR      36  14  40 CALM      30.37F
EAGLE          FAIR      21  10  62 W3        30.42F
RIFLE          FAIR      31  18  58 SW3       30.37F
DELTA          FAIR      33  17  52 CALM      30.38F
NUCLA          FAIR      34  18  51 NW5       30.38F WCI  30
$$

COZ017>023-064>068-181900-
...SOUTHWEST COLORADO...

CITY           SKY/WX    TMP DP  RH WIND       PRES   REMARKS
DURANGO        FAIR      34  19  54 CALM      30.32F
CORTEZ         FAIR      38  21  50 CALM      30.33F
PAGOSA SPRINGS FAIR      37  11  34 CALM      30.31F
TELLURIDE      FAIR      37   3  24 CALM      30.36F
WOLF CREEK PAS FAIR      32  -6  19 NW6       30.44F WCI  26
$$

COZ009-010-012-014-032>034-037-058>063-181900-
...CENTRAL COLORADO...

CITY           SKY/WX    TMP DP  RH WIND       PRES   REMARKS
ASPEN          FAIR      31  12  45 CALM      30.32F
BUENA VISTA    FAIR      39   6  25 S5        30.28F
COPPER MTN     NOT AVBL
BERTHOUD PASS  FAIR      21  10  63 NW20G29   30.36F WCI   6
COTTONWOOD PAS   N/A     43   3  19 CALM      30.31S
GUNNISON       FAIR      12   5  73 CALM      30.43F
KREMMLING      FAIR      19   9  63 CALM      30.41F
LEADVILLE      FAIR      30   0  27 N7        30.33S WCI  23
SALIDA         FAIR      42   8  25 CALM      30.34F
SUNLIGHT       FAIR      32   5  32 CALM      30.40F
WILKERSON PASS FAIR      36   0  21 NW5       30.35S
$$

COZ069>075-181900-
...SAN LUIS VALLEY/SANGRE DE CRISTO MOUNTAINS...

CITY           SKY/WX    TMP DP  RH WIND       PRES   REMARKS
ALAMOSA        FAIR      31   4  31 CALM      30.32F
DEL NORTE      FAIR      34   4  27 E3        30.33F
LA VETA PASS   FAIR      34   9  35 SW18        N/A  WCI  23
SAGUACHE       FAIR      36   9  32 SE7       30.33F
$$

COZ035-036-038>040-181900-
...NORTHERN COLORADO FRONT RANGE...

CITY           SKY/WX    TMP DP  RH WIND       PRES   REMARKS
DENVER INTL AP PTSUNNY   56  10  16 SW13      30.08F
DMNS CITY PARK NOT AVBL
AURORA         PTSUNNY   55   8  15 S10       30.09F
FRONT RANGE AP PTSUNNY   57  12  17 S12G20    30.09F
ERIE MUNI ARPT FAIR      46  14  28 CALM      30.13F
BOULDER MUN AP FAIR      45  16  31 CALM      30.08F
CENTENNIAL     PTSUNNY   55   3  12 SW8       30.10F
BROOMFIELD     PTSUNNY   50  12  22 S5        30.10
FORT COLLINS   FAIR      41  21  44 S5        30.08F
LONGMONT       FAIR      46  18  32 CALM      30.10F
$$

COZ041-046-047-076>085-087-088-181900-
...PIKES PEAK/PALMER DIVIDE AND SOUTHERN FOOTHILLS...

CITY           SKY/WX    TMP DP  RH WIND       PRES   REMARKS
COLO. SPRINGS  PTSUNNY   54   8  16 S7        30.16F
A. F. ACADEMY  FAIR      53   3  13 S7        30.15F
SCHRIEVER AFB  FAIR      53   5  14 SW5       30.15F
CHEYENNE MTN   FAIR      51   9  19 SE8       30.11F
ELLICOTT         N/A    N/A N/A N/A CALM      30.13F
FALCON         FAIR      53   2  12 SW6       30.17F
FORT CARSON    FAIR      54   9  16 S8        30.13F
LIMON          FAIR      54  17  23 VRB5      30.11F
MONUMENT HILL  FAIR      52   3  14 SW9       30.17S
CANON CITY     FAIR      52  10  19 W21       30.14F
WALSENBURG     NOT AVBL
TRINIDAD       FAIR      52   7  16 W7        30.17F
$$

COZ042>045-048>051-090-091-181900-
...NORTHEAST COLORADO...

CITY           SKY/WX    TMP DP  RH WIND       PRES   REMARKS
GREELEY ARPT   FAIR      39  19  44 W5        30.09F
AKRON          FAIR      45  18  34 W12       30.08S
BURLINGTON     FAIR      58   8  13 SW13      30.08F
WRAY           FAIR      52  19  28 W7        30.06F
YUMA           FAIR      52  19  28 W9        30.06F
STERLING       FAIR      37  21  52 S9        30.06F
HOLYOKE        FAIR      52  23  32 W7        30.05F
FORT MORGAN    FAIR      43  13  30 W10       30.09F
$$

COZ086-089-092>099-181900-
...SOUTHEAST COLORADO...

CITY           SKY/WX    TMP DP  RH WIND       PRES   REMARKS
PUEBLO         FAIR      46  14  27 SW6       30.14F
LA JUNTA       FAIR      43  13  29 W8        30.14F
LAMAR          FAIR      44   9  23 W14       30.13F
SPRINGFIELD      N/A     56   2  11 SW8       30.13
$$



USA.gov is the U.S. government's official web portal to all federal, state and local government web resources and services.